Retour au catalogue

SL-8 R/B

ActifPO
NORAD 15598·ROCKET BODY·🇷🇺 Russia

Lancé Mar 14, 1985 depuis Plesetsk Cosmodrome

Loading…

Prochains Passages (prochaines 24 heures)

TLE

FraisSource: Space-Track

Époque: Sep 14, 2026, 13:56 UTC

1 15598U 85022B   26257.58115122  .00000001  00000-0 -14069-4 0  9998
2 15598  82.9350 117.1027 0022746  28.2241   0.5346 13.76848086 84782

Suivez SL-8 R/B en temps réel avec AllMySat

Download on the App Store